sat.trackr.live / text

‹ back to catalog

FLOCK 4BE-28

NORAD 60519 · 2024-149BD

PAYLOAD ACTIVE UNKNOWN

§ Identity

Operator
Country
US
Launch date
2024-08-16
Launch site
AFWTR
Launch vehicle
Mass (kg)
RCS (m²)

Purposes: earth_obs

External: N2YO · Heavens-Above · Gunter

§ Orbital elements

Epoch: 2026-09-18T12:00:42.303168Z

Period
92.90 min
Inclination
97.3698°
Eccentricity
0.0002573
Mean motion
15.50075245 rev/d
Perigee alt
414.8 km
Apogee alt
418.3 km
Semi-major
6,794.6 km
B*
3.3340e-4
RAAN
349.0438°
Arg perigee
329.4158°
Mean anomaly
30.6943°
Rev number
11,687

§ Raw data

FLOCK 4BE-281 60519U 24149BD  26261.50048962  .00018658  00000+0  33340-3 0  99952 60519  97.3698 349.0438 0002573 329.4158  30.6943 15.50075245116877

JSON: /api/v1/satellites/60519 · /tle

For live sub-satellite position, see the globe view (requires WebGL).

§ Visibility from observer

Set your observer location to see the next 7 days of passes ≥ 10°. The values pass through the URL so the page stays shareable.

No JS? Fill the form by hand. The geolocation button needs JavaScript.